This is the latest recevied weather packets stored in our database for station/object DH0GMA. If no packets are shown the sender has not sent any weather packets the latest 10 day(s).
| Time | Temp. | Humidity | Pressure | Rain* | Wind** | Luminosity | Snow |
|---|---|---|---|---|---|---|---|
| 1778061989 | 15.56° C | 72% | 1005.8 hPa | 0 mm | - | - | - |
| 1778061389 | 15.56° C | 71% | 1006 hPa | 0 mm | - | - | - |
| 1778060788 | 16.11° C | 72% | 1006 hPa | 0 mm | - | - | - |
| 1778060188 | 15.56° C | 71% | 1005.9 hPa | 0 mm | - | - | - |
| 1778059588 | 16.11° C | 71% | 1006.1 hPa | 0 mm | - | - | - |
| 1778058988 | 16.11° C | 72% | 1006 hPa | 0 mm | - | - | - |
| 1778058388 | 15.56° C | 73% | 1005.9 hPa | 0 mm | - | - | - |
| 1778057788 | 15° C | 77% | 1005.9 hPa | 0 mm | - | - | - |
| 1778057188 | 14.44° C | 77% | 1005.8 hPa | 0 mm | - | - | - |
| 1778056587 | 14.44° C | 80% | 1005.8 hPa | 0 mm | - | - | - |
| 1778055988 | 13.89° C | 80% | 1005.9 hPa | 0 mm | - | - | - |
| 1778055388 | 13.89° C | 81% | 1005.9 hPa | 0 mm | - | - | - |
| 1778054788 | 13.89° C | 82% | 1005.9 hPa | 0 mm | - | - | - |
| 1778054188 | 13.33° C | 82% | 1005.9 hPa | 0 mm | - | - | - |
| 1778053588 | 13.33° C | 81% | 1006 hPa | 0 mm | - | - | - |
| 1778052988 | 13.33° C | 82% | 1006.1 hPa | 0 mm | - | - | - |
| 1778052388 | 13.33° C | 83% | 1006.3 hPa | 0 mm | - | - | - |
| 1778051788 | 12.78° C | 84% | 1006.5 hPa | 0 mm | - | - | - |
| 1778051187 | 12.78° C | 85% | 1006.3 hPa | 0 mm | - | - | - |
| 1778050587 | 12.78° C | 86% | 1006.4 hPa | 0 mm | - | - | - |
| 1778049987 | 12.22° C | 86% | 1006.1 hPa | 0 mm | - | - | - |
| 1778049387 | 12.22° C | 87% | 1006.2 hPa | 0 mm | - | - | - |
| 1778048787 | 11.67° C | 88% | 1006 hPa | 0 mm | - | - | - |
| 1778048187 | 11.67° C | 89% | 1006.1 hPa | 0 mm | - | - | - |
| 1778047587 | 11.67° C | 90% | 1006.2 hPa | 0 mm | - | - | - |
* Rain latest hour (hover to see other rain measurements)
** Current wind speed in m/s (hover to see current wind gust speed)